BAW186 KAUS-EGLL

Flight info

Callsign BAW186
Flight time N/A
Altitude 35000
Route ILEXY4 ZENZI DCT LFK DCT ELD J29 MEM DCT BWG DCT YOCKY Q68 HVQ DCT FINKS DCT LDN DCT MRB DCT EMI DCT RBV Q430 ACK DCT BRADD N261B NICSO/M086F350 NATW GISTI/N0493F350 DCT ENJEX DCT AVZAC DCT INFEC DCT JETZI DCT AMFUL DCT ORZEB P2 SIRIC
Aircraft B789/H-SDE1E2E3FGHIJ2J3J4J5M1RWXY/LB1D1

Departure

Time 2026-05-03 23:22
Airport Austin Bergstrom International Airport (KAUS)

Arrival

Time N/A
Airport London Heathrow Airport (EGLL)
Time Latitude Longitude Altitude Speed Heading
2026-05-03 22:54 30.20176 -97.66213 533 ft 0 kts 325°
2026-05-03 23:02 30.20176 -97.66212 533 ft 0 kts 325°
2026-05-03 23:02 30.20176 -97.66213 533 ft 0 kts 325°
2026-05-03 23:13 30.20176 -97.66212 533 ft 0 kts 325°
2026-05-03 23:13 30.20165 -97.66203 536 ft 6 kts 317°
2026-05-03 23:13 30.20152 -97.66187 533 ft 6 kts 298°
2026-05-03 23:13 30.20146 -97.66170 536 ft 6 kts 269°
2026-05-03 23:14 30.20148 -97.66155 538 ft 6 kts 233°
2026-05-03 23:14 30.20160 -97.66143 539 ft 7 kts 201°
2026-05-03 23:14 30.20175 -97.66139 541 ft 6 kts 179°
2026-05-03 23:14 30.20179 -97.66139 540 ft 10 kts 176°
2026-05-03 23:17 30.20169 -97.66138 539 ft 4 kts 177°
2026-05-03 23:17 30.20128 -97.66144 538 ft 8 kts 202°
2026-05-03 23:17 30.20100 -97.66204 533 ft 10 kts 261°
2026-05-03 23:18 30.20095 -97.66304 533 ft 15 kts 268°
2026-05-03 23:18 30.20048 -97.66382 533 ft 12 kts 197°
2026-05-03 23:18 30.19965 -97.66388 533 ft 12 kts 173°
2026-05-03 23:18 30.19917 -97.66324 533 ft 12 kts 101°
2026-05-03 23:19 30.19916 -97.66217 533 ft 15 kts 90°
2026-05-03 23:19 30.19918 -97.66085 533 ft 18 kts 88°
2026-05-03 23:19 30.19929 -97.65933 532 ft 12 kts 65°
2026-05-03 23:19 30.19995 -97.65909 532 ft 12 kts 356°
2026-05-03 23:20 30.20094 -97.65909 533 ft 16 kts
2026-05-03 23:20 30.20217 -97.65911 533 ft 20 kts 358°
2026-05-03 23:20 30.20293 -97.65863 533 ft 13 kts 77°
2026-05-03 23:20 30.20268 -97.65797 533 ft 6 kts 153°
2026-05-03 23:21 30.20239 -97.65788 532 ft 0 kts 178°
2026-05-03 23:21 30.20232 -97.65788 532 ft 9 kts 177°
2026-05-03 23:21 30.19909 -97.65778 531 ft 85 kts 179°
2026-05-03 23:21 30.19092 -97.65754 539 ft 150 kts 178°
2026-05-03 23:22 30.16908 -97.65625 1685 ft 164 kts 166°
2026-05-03 23:22 30.15850 -97.65096 2356 ft 165 kts 148°
2026-05-03 23:22 30.14818 -97.64484 3010 ft 173 kts 152°
2026-05-03 23:23 30.13642 -97.63829 3318 ft 200 kts 152°
2026-05-03 23:23 30.12587 -97.62667 3548 ft 226 kts 114°
2026-05-03 23:23 30.12549 -97.60898 4241 ft 227 kts 69°
2026-05-03 23:23 30.13406 -97.59306 4678 ft 247 kts 53°
2026-05-03 23:24 30.14424 -97.57606 5167 ft 264 kts 60°
2026-05-03 23:24 30.15276 -97.55727 6128 ft 265 kts 65°
2026-05-03 23:24 30.16034 -97.53806 6958 ft 266 kts 65°
2026-05-03 23:24 30.16850 -97.51817 7502 ft 275 kts 63°
2026-05-03 23:25 30.17708 -97.49810 8451 ft 283 kts 62°
2026-05-03 23:25 30.18579 -97.47763 9305 ft 288 kts 62°
2026-05-03 23:25 30.19473 -97.45637 10160 ft 294 kts 62°
2026-05-03 23:25 30.20390 -97.43456 10526 ft 319 kts 62°
2026-05-03 23:26 30.21408 -97.41044 10726 ft 348 kts 62°
2026-05-03 23:26 30.22511 -97.38425 10975 ft 375 kts 62°
2026-05-03 23:26 30.23683 -97.35631 11571 ft 383 kts 62°
2026-05-03 23:26 30.24775 -97.33012 13627 ft 353 kts 62°
2026-05-03 23:27 30.25864 -97.30423 14411 ft 365 kts 62°
2026-05-03 23:27 30.26977 -97.27788 15195 ft 369 kts 62°
2026-05-03 23:27 30.28108 -97.25088 15953 ft 375 kts 62°
2026-05-03 23:27 30.29254 -97.22346 16719 ft 380 kts 61°
2026-05-03 23:28 30.30408 -97.19589 17461 ft 386 kts 61°
2026-05-03 23:28 30.31590 -97.16767 18246 ft 391 kts 61°
2026-05-03 23:28 30.32780 -97.13921 18869 ft 398 kts 61°
2026-05-03 23:28 30.33993 -97.11015 19536 ft 403 kts 61°
2026-05-03 23:29 30.34924 -97.07907 20162 ft 413 kts 78°
2026-05-03 23:29 30.35091 -97.04637 20752 ft 422 kts 94°
2026-05-03 23:29 30.34877 -97.01209 21329 ft 429 kts 93°
2026-05-03 23:29 30.34682 -96.97723 21956 ft 434 kts 93°
2026-05-03 23:30 30.34481 -96.94246 22544 ft 440 kts 93°
2026-05-03 23:30 30.34265 -96.90686 23140 ft 446 kts 94°
2026-05-03 23:30 30.34046 -96.87068 23723 ft 452 kts 93°
2026-05-03 23:30 30.33833 -96.83469 24201 ft 457 kts 93°
2026-05-03 23:31 30.33615 -96.79805 24694 ft 462 kts 93°
2026-05-03 23:31 30.33382 -96.76047 25190 ft 467 kts 93°
2026-05-03 23:31 30.33148 -96.72319 25672 ft 472 kts 93°
2026-05-03 23:31 30.32910 -96.68498 26164 ft 477 kts 93°
2026-05-03 23:32 30.32671 -96.64645 26644 ft 482 kts 93°
2026-05-03 23:32 30.32517 -96.62173 26937 ft 485 kts 93°
2026-05-03 23:32 30.32194 -96.57061 27561 ft 492 kts 93°
2026-05-03 23:32 30.32026 -96.54427 27869 ft 495 kts 93°
2026-05-03 23:33 30.31782 -96.50585 28328 ft 500 kts 93°
2026-05-03 23:33 30.31532 -96.46661 28771 ft 505 kts 93°
2026-05-03 23:33 30.31271 -96.42586 29266 ft 510 kts 93°
2026-05-03 23:33 30.31016 -96.38647 29712 ft 515 kts 93°
2026-05-03 23:34 30.30751 -96.34560 30154 ft 520 kts 93°
2026-05-03 23:34 30.30478 -96.30351 30606 ft 524 kts 93°
2026-05-03 23:34 30.30201 -96.26124 31023 ft 528 kts 93°
2026-05-03 23:34 30.29923 -96.21896 31434 ft 532 kts 93°
2026-05-03 23:35 30.29644 -96.17674 31852 ft 536 kts 92°
2026-05-03 23:35 30.29395 -96.13406 32266 ft 538 kts 87°
2026-05-03 23:35 30.29684 -96.09083 32703 ft 535 kts 74°
2026-05-03 23:35 30.30626 -96.04981 33120 ft 530 kts 62°
2026-05-03 23:36 30.32179 -96.01137 33538 ft 522 kts 50°
2026-05-03 23:36 30.34237 -95.97704 33980 ft 516 kts 44°
2026-05-03 23:36 30.36428 -95.94380 34339 ft 520 kts 44°
2026-05-03 23:36 30.38607 -95.91102 34715 ft 523 kts 44°
2026-05-03 23:37 30.40837 -95.87733 35098 ft 526 kts 44°
2026-05-03 23:37 30.43076 -95.84324 35480 ft 529 kts 44°
2026-05-03 23:37 30.45292 -95.80950 35863 ft 532 kts 44°
2026-05-03 23:37 30.47549 -95.77526 36236 ft 535 kts 44°
2026-05-03 23:38 30.49819 -95.74080 36615 ft 538 kts 44°
2026-05-03 23:38 30.52068 -95.70654 36993 ft 541 kts 44°
2026-05-03 23:38 30.56677 -95.63623 37101 ft 543 kts 44°
2026-05-03 23:39 30.61206 -95.56705 37117 ft 539 kts 44°
2026-05-03 23:39 30.65778 -95.49723 37118 ft 543 kts 44°
2026-05-03 23:40 30.70336 -95.42726 37133 ft 545 kts 44°
2026-05-03 23:40 30.74895 -95.35735 37133 ft 544 kts 44°
2026-05-03 23:41 30.79483 -95.28676 37133 ft 545 kts 44°
2026-05-03 23:41 30.83971 -95.21765 37132 ft 544 kts 44°
2026-05-03 23:42 30.88523 -95.14738 37135 ft 544 kts 44°
2026-05-03 23:42 30.93057 -95.07729 37126 ft 543 kts 44°